Location: Riverton
(43.0250°N, 108.3790°W)
Time: 04:34:53
(UTC-06:00)

Daily predictions for brighter satellites

Satellite Brightness Start Highest point End
(mag) Time Altitude Azimuth Time Altitude Azimuth Time Altitude Azimuth
H-2A R/B 4.3 00:03:26 12° WSW 00:06:05 16° W 00:09:20 10° NW
deb Chang Zheng 4 4.5 00:09:50 10° N 00:14:03 44° WNW 00:14:41 41° W
CZ-2C R/B 3.0 00:16:45 69° E 00:16:54 69° ENE 00:21:49 10° N
Cosmos 2082 3.6 00:18:06 10° NNW 00:23:52 77° ENE 00:24:27 69° ESE
CZ-4B R/B 4.0 00:19:26 10° N 00:24:14 51° WNW 00:25:02 46° WSW
Cosmos 2266 Rocket 3.8 00:25:27 65° SE 00:26:12 73° E 00:32:19 10° NNE
Cosmos 2278 3.6 00:26:57 72° ESE 00:27:00 72° ESE 00:32:41 10° NNE
APEX 4.4 00:25:23 10° NNW 00:28:32 40° NW 00:28:32 40° NW
Cosmos 2056 Rocket 3.9 00:31:54 49° ENE 00:31:54 49° ENE 00:36:09 10° NNE
BREEZE M DEB (TANK) 4.4 00:27:31 10° W 00:31:56 30° NNW 00:32:29 28° N
Cosmos 2315 Rocket 4.1 00:30:48 10° N 00:36:56 61° E 00:37:44 56° ESE
ISS -0.9 00:35:36 10° NW 00:37:55 18° N 00:39:30 13° NE
Cosmos 1633 4.5 00:41:49 26° NW 00:41:49 26° NW 00:44:05 10° NNW
Cosmos 1025 Rocket 4.3 00:37:03 10° N 00:40:22 33° NE 00:40:22 33° NE
Meteor 1-19 Rocket 4.2 00:37:01 10° NNW 00:42:51 72° W 00:43:19 68° SW
Meteor 1-13 Rocket 4.3 00:39:08 10° NNW 00:44:52 69° W 00:45:19 66° SW
CZ-2C R/B 2.5 00:40:42 10° N 00:45:54 79° WNW 00:46:00 79° W
ALOS 2 3.0 00:47:34 59° NNW 00:47:34 59° NNW 00:51:12 10° NNW
Cosmos 2227 Rocket 2.4 00:42:50 10° NNW 00:48:20 58° WSW 00:48:20 58° WSW
ATLAS CENTAUR R/B 3.7 00:48:33 15° WNW 00:50:13 19° NW 00:53:03 10° N
Cosmos 1656 3.5 00:54:43 89° N 00:54:43 89° N 01:00:15 10° NNE
Cosmos 1452 Rocket 4.5 00:58:11 36° E 00:58:11 36° E 01:02:14 10° NE
Cosmos 1536 3.9 00:58:49 44° N 00:58:49 44° N 01:01:43 10° N
Cosmos 921 Rocket 3.9 01:05:14 43° NNE 01:05:14 43° NNE 01:08:11 10° NNE
CZ-4C R/B 3.3 00:58:58 10° NNW 01:05:57 60° NE 01:09:36 32° ESE
Meteor 1-23 Rocket 4.1 01:03:36 10° NNW 01:09:18 82° W 01:09:21 82° WSW
Meteor 1-11 Rocket 4.2 01:08:41 51° WSW 01:09:32 55° WNW 01:15:24 10° N
Cosmos 1300 Rocket 4.4 01:10:54 45° NW 01:10:54 45° NW 01:14:25 10° N
Cosmos 1244 Rocket 4.4 01:10:39 70° SE 01:11:12 76° E 01:17:27 10° N
Cosmos 2369 4.2 01:10:45 46° W 01:11:50 52° WNW 01:17:25 10° NNE
BREEZE-M (TANK) 3.4 01:06:09 10° WNW 01:13:36 52° N 01:13:43 51° NNE
Cosmos 1980 Rocket 2.5 01:14:36 52° E 01:14:36 52° E 01:19:37 10° NNE
Meteor 2-4 Rocket 4.0 01:10:20 10° NNW 01:15:20 51° W 01:15:20 51° W
Nadezhda 2 Rocket 4.3 01:17:43 69° SW 01:18:17 75° W 01:24:25 10° N
Meteor 1-5 Rocket 4.1 01:18:54 75° W 01:19:04 76° WNW 01:24:37 10° N
GP-B 3.9 01:16:04 10° N 01:19:39 48° NW 01:19:39 48° NW
Cosmos 1190 Rocket 4.5 01:18:42 10° NNW 01:23:09 51° WNW 01:23:09 51° WNW
Mayak -0.4 01:19:58 10° N 01:23:10 48° NNW 01:23:10 48° NNW
Nadezhda 1 Rocket 4.4 01:23:19 10° N 01:29:16 51° ENE 01:30:21 46° ESE
Cosmos 1461 4.0 01:26:42 10° NNW 01:30:50 41° NE 01:30:50 41° NE
Cosmos 676 Rocket 4.1 01:29:28 10° NNW 01:34:15 68° WNW 01:34:15 68° WNW
Cosmos 1697 Rocket 3.0 01:40:42 53° W 01:41:19 56° WNW 01:46:52 10° NNE
Cosmos 1238 Rocket 3.6 01:36:45 10° N 01:42:07 87° W 01:42:22 82° SSW
Cosmos 2297 Rocket 3.6 01:38:01 10° NW 01:41:49 25° W 01:41:49 25° W
Cosmos 839 Rocket 3.8 01:43:13 71° SSE 01:43:41 75° ESE 01:49:51 10° NE
Cosmos 407 Rocket 4.4 01:40:18 10° NW 01:44:29 37° W 01:44:29 37° W
Cosmos 1140 Rocket 3.5 01:40:25 10° NNW 01:45:15 77° NW 01:45:15 77° NW
Cosmos 1023 Rocket 4.5 01:41:03 10° NNW 01:45:52 76° NW 01:45:52 76° NW
Cosmos 1544 Rocket 4.2 01:47:07 52° NE 01:47:07 52° NE 01:50:41 10° NNE
USA 229 DEB 4.0 01:45:49 39° WSW 01:48:13 59° NW 01:55:08 10° NNE
USA 229 4.0 01:45:57 40° WSW 01:48:19 60° NW 01:55:14 10° NNE
Cosmos 1741 Rocket 4.3 01:45:53 10° NNW 01:51:04 59° ENE 01:51:28 57° E
Cosmos 1975 3.8 01:53:23 47° NNE 01:53:23 47° NNE 01:56:20 10° N
NOSS 3-1 (A) 3.4 01:53:55 59° ESE 01:54:00 59° ESE 02:00:19 10° NE
CZ-4B R/B 3.5 01:58:46 26° NNW 01:58:46 26° NNW 02:00:27 10° NNW
SL-16 R/B 2.8 01:58:20 43° ESE 01:58:23 43° ESE 02:03:43 10° NE
Cosmos 1455 Rocket 3.5 02:03:21 59° NNE 02:03:21 59° NNE 02:06:58 10° N
Cosmos 2322 Rocket 2.6 02:05:45 50° ESE 02:05:58 50° ESE 02:11:28 10° NE
Cosmos 1745 Rocket 3.9 02:08:16 65° SW 02:09:03 74° W 02:15:13 10° N
Resurs 1-4 Rocket 4.4 02:07:31 10° ENE 02:09:40 12° E 02:11:36 10° ESE
Cosmos 1666 4.0 02:11:00 37° NE 02:11:00 37° NE 02:13:45 10° NNE
Cosmos 2360 4.4 02:15:01 55° W 02:15:46 60° WNW 02:21:26 10° NNE
BREEZE M DEB (TANK) 3.4 02:17:53 73° SW 02:18:24 84° SSE 02:21:38 10° ENE
H-2A R/B 3.0 02:20:14 10° N 02:23:25 51° NNW 02:23:25 51° NNW
Helios 1A Rocket 3.6 02:28:41 10° NNE 02:32:10 47° ENE 02:32:10 47° ENE
Cosmos 1602 Rocket 3.6 02:32:07 10° N 02:36:12 74° NNW 02:36:12 74° NNW
CZ-2D R/B 3.9 02:32:43 10° NE 02:36:59 23° E 02:39:11 18° SE
NOSS 3-1 (C) 3.8 02:35:41 41° W 02:37:28 56° NW 02:43:57 10° NNE
NPP 4.2 02:33:20 10° NNE 02:38:32 47° E 02:39:39 41° SE
BREEZE-M DEB (TANK) 3.6 02:33:52 10° W 02:42:38 50° NNW 02:45:41 10° NE
PSLV R/B 4.0 02:38:09 10° N 02:42:50 56° WNW 02:42:58 55° W
Cosmos 2263 Rocket 2.1 02:41:57 10° NNW 02:47:41 88° ENE 02:49:18 49° SSE
Cosmos 1842 3.6 02:47:17 10° N 02:50:31 60° NNW 02:50:31 60° NNW
USA 81 4.4 02:46:15 10° NNW 02:51:20 49° W 02:51:33 48° W
Cosmos 1743 4.0 02:52:16 32° NW 02:52:16 32° NW 02:55:05 10° N
CZ-4C R/B 3.5 02:47:53 10° NW 02:54:25 36° WSW 02:54:43 36° WSW
Cosmos 2360 Rocket 2.6 02:55:37 43° SSE 02:56:56 52° ESE 03:02:25 10° NE
Cosmos 1980 Rocket 3.7 02:56:20 20° W 02:58:28 25° NW 03:03:06 10° N
Cosmos 44 3.2 02:55:57 10° NNW 03:00:21 72° NE 03:01:30 47° SE
Cosmos 2219 Rocket 4.5 02:57:37 10° SE 03:00:33 14° E 03:03:28 10° ENE
Lacrosse 5 rocket 4.2 02:58:09 10° NNW 03:00:48 17° NNE 03:03:34 10° ENE
Cosmos 1110 Rocket 3.9 03:02:27 62° SW 03:03:18 81° WNW 03:08:30 10° NNE
BREEZE M DEB (TANK) 3.6 03:06:42 25° N 03:06:42 25° N 03:08:48 10° NE
COSMOS 2428 4.2 03:04:34 21° SE 03:07:00 28° ESE 03:11:49 10° NE
Cosmos 1844 Rocket 4.5 03:02:06 10° N 03:07:07 31° NE 03:12:06 10° ESE
SL-08 R/B 3.1 03:07:13 61° SSE 03:08:01 89° ENE 03:12:39 10° NNW
IRS-1D 4.4 03:05:28 10° NNE 03:10:08 40° E 03:12:00 29° SE
Cosmos 1606 Rocket 3.9 03:09:40 49° SE 03:10:29 59° E 03:14:53 10° NNE
USA 234 3.2 03:04:14 10° NE 03:10:50 89° SE 03:13:34 39° SW
NOSS 2-3 (D) 4.2 03:12:10 47° SSE 03:13:03 53° ESE 03:18:17 10° NE
Meteor 1-4 Rocket 2.8 03:13:48 62° ENE 03:13:48 62° ENE 03:17:09 10° NNE
SL-8 R/B 3.7 03:13:15 60° S 03:13:38 63° SSE 03:18:24 10° ENE
Cosmos 1709 Rocket 4.5 03:18:05 36° WSW 03:19:43 44° WNW 03:25:32 10° N
Cosmos 1437 Rocket 4.0 03:21:25 30° WNW 03:21:25 30° WNW 03:25:01 10° N
COBE Rocket 4.0 03:18:40 10° N 03:23:50 70° WNW 03:25:15 47° SW
ADEOS Rocket 2.9 03:17:36 10° NNE 03:23:52 78° WNW 03:26:00 41° SSW
AQUA 3.7 03:19:09 10° NNE 03:23:56 82° WNW 03:25:04 53° SSW
Cosmos 2322 3.7 03:23:22 42° S 03:25:19 73° ESE 03:30:59 10° NNE
Cosmos 2333 Rocket 4.3 03:21:54 10° SE 03:25:48 19° E 03:29:43 10° NE
Cosmos 1378 4.3 03:25:24 10° N 03:28:57 40° ENE 03:30:38 25° SE
Cosmos 1825 Rocket 3.5 03:28:21 10° NNW 03:32:42 62° W 03:33:20 54° SW
Cosmos 1707 3.1 03:30:28 10° N 03:34:17 61° E 03:35:38 36° SE
ARIANE 5 R/B 2.8 03:29:12 10° NNE 03:34:18 62° ESE 03:36:45 30° S
UNK 3.7 03:32:51 37° SSE 03:34:42 89° W 03:39:21 10° NNW
Cosmos 1758 Rocket 3.4 03:30:38 10° N 03:34:59 80° W 03:36:04 50° S
ATLAS 2AS CENTAUR R/B 3.1 03:35:17 31° SSW 03:39:26 72° ESE 03:47:33 10° NE
Meteor 2-5 Rocket 4.0 03:33:57 10° N 03:39:36 68° ENE 03:44:36 14° SSE
Cosmos 2228 3.2 03:40:12 38° SSE 03:41:44 68° E 03:46:00 10° NNE
SL-16 R/B 3.4 03:40:11 22° W 03:42:37 31° NW 03:47:38 10° N
MOS 1 Rocket 3.6 03:40:44 10° NNE 03:45:11 56° E 03:47:15 28° SSE
ERS-1 4.4 03:41:16 10° NNE 03:46:22 86° WNW 03:48:31 35° SSW
Meteor 1-15 Rocket 4.5 03:44:51 35° SW 03:46:58 54° WNW 03:52:36 10° N
SL-16 R/B 2.5 03:43:18 24° S 03:47:10 69° WSW 03:53:27 10° NNW
Resurs 1-4 Rocket 2.0 03:44:51 10° NNE 03:50:09 83° WNW 03:52:41 32° SSW
Cosmos 2322 Rocket 3.6 03:47:34 19° W 03:50:16 27° NW 03:55:07 10° N
Cosmos 44 Rocket 3.8 03:46:27 10° NW 03:50:45 35° WSW 03:50:45 35° WSW
NOSS 2-3 (E) 4.0 03:49:46 37° SW 03:51:42 72° NW 03:57:16 10° NNE
Cosmos 2333 4.5 03:51:21 26° S 03:54:34 63° ESE 04:00:11 10° NNE
IRS-1C 4.5 03:51:10 10° N 03:56:20 51° WNW 03:58:40 30° SW
Cosmos 2184 Rocket 4.2 03:54:16 30° SW 03:57:12 55° WNW 04:03:15 10° N
Aureole 2 Rocket 4.0 03:55:10 21° SSE 03:57:23 38° ESE 04:01:08 10° NE
Cosmos 389 Rocket 3.7 03:56:10 22° SSE 03:58:01 39° E 04:01:25 10° NNE
Cosmos 1844 4.2 03:56:17 10° NNW 04:01:51 61° ENE 04:07:25 10° SE
ATLAS CENTAUR R/B 4.4 03:55:51 10° NW 04:02:56 30° NNE 04:06:08 10° ENE
Cosmos 1486 Rocket 4.4 04:01:16 10° NNW 04:06:14 41° WSW 04:08:32 27° SSW
ATLAS 3B R/B 2.7 04:00:15 10° NW 04:07:03 78° NE 04:13:32 10° SE
Cosmos 972 Rocket 3.8 04:04:35 28° SSW 04:07:13 90° WNW 04:12:16 10° NNE
Cosmos 1953 Rocket 4.4 04:07:36 10° NNW 04:11:37 33° W 04:12:50 28° WSW
Cosmos 2058 Rocket 3.5 04:12:22 29° SW 04:14:16 47° WNW 04:18:39 10° N
DELTA 2 R/B (1) 3.7 04:11:54 24° WSW 04:15:10 59° S 04:20:39 10° E
Iridium 4 Rocket 4.1 04:12:52 24° SSW 04:16:04 49° W 04:21:29 10° N
CZ-2D R/B 2.6 04:12:01 10° N 04:17:19 50° WNW 04:20:31 23° SW
Cosmos 1340 Rocket 2.7 04:16:25 10° NNW 04:20:23 75° W 04:23:27 16° S
Cosmos 1354 Rocket 4.0 04:15:20 10° NNW 04:20:34 61° WSW 04:25:47 10° S
BREEZE-M DEB (TANK) 4.1 04:18:19 22° SSW 04:21:18 57° SE 04:37:53 10° ENE
USA 161 3.0 04:19:32 10° SE 04:22:20 38° ENE 04:25:04 10° N
Cosmos 1812 Rocket 3.9 04:19:12 14° S 04:22:54 63° E 04:27:12 10° NNE
Cosmos 1271 Rocket 3.0 04:22:49 27° SW 04:24:46 54° WNW 04:28:42 10° N
Nadezhda 3 Rocket 4.1 04:19:03 10° NNW 04:25:11 61° W 04:31:09 11° S
OAO 3 Rocket 4.0 04:26:57 23° SW 04:28:51 31° S 04:33:08 10° ESE
Meteor 1-22 Rocket 4.3 04:24:46 15° S 04:29:36 85° W 04:35:36 10° N
SL-8 Rocket 4.3 04:24:05 10° S 04:30:20 69° E 04:36:37 10° NNE
Cosmos 962 Rocket 4.4 04:25:16 15° SSW 04:30:24 75° W 04:36:33 10° N
Cosmos 2263 Rocket 4.0 04:28:15 10° WNW 04:30:45 13° W 04:30:56 13° W
USA 238 DEB 3.8 04:26:31 10° NW 04:33:40 87° SW 04:40:49 10° SSE
USA 238 3.8 04:26:38 10° NW 04:33:46 88° SW 04:40:56 10° SSE
UNKNOWN OBJECT B 3.0 04:30:47 10° N 04:34:32 55° WNW 04:37:00 20° SW
Okean O Rocket 3.5 04:30:48 10° NE 04:34:40 28° E 04:38:31 10° SSE
In-Cosmos 22 4.0 04:30:04 10° N 04:35:26 87° W 04:40:43 10° S
Cosmos 968 Rocket 3.9 04:31:17 10° NNW 04:36:27 67° ENE 04:41:32 10° SSE
Cosmos 1544 3.0 04:35:45 16° S 04:38:42 87° W 04:42:26 10° N
CZ-2D R/B 3.6 04:34:26 10° N 04:38:42 60° WNW 04:41:48 17° SSW
Cosmos 1356 Rocket 3.6 04:35:04 10° N 04:39:06 71° E 04:43:05 10° SSE
NOSS 0 Rocket 4.3 04:34:17 11° SSW 04:40:07 65° ESE 04:46:17 10° NNE
Lacrosse 5 rocket 1.5 04:36:36 10° NW 04:40:34 73° NE 04:44:48 10° SE
Cosmos 2360 Rocket 3.6 04:37:23 13° WSW 04:41:14 26° NW 04:45:56 10° N
Cosmos 2219 Rocket 2.2 04:39:01 16° SSW 04:43:43 81° WNW 04:49:26 10° NNE
ERBS 3.4 04:43:22 15° SSW 04:45:51 37° SE 04:49:04 10° ENE
Cosmos 1980 4.0 04:42:53 10° SSW 04:48:31 68° ESE 04:54:10 10° NNE
NOSS 3-2 (A) 4.4 04:42:19 10° NNW 04:49:47 70° NE 04:57:53 10° SE
Cosmos 2237 Rocket 2.5 04:44:16 10° S 04:49:48 64° ESE 04:55:23 10° NNE
Cosmos 1758 3.6 04:45:55 10° S 04:49:54 69° E 04:53:57 10° NNE
COSMOS 2428 3.3 04:46:36 15° SW 04:51:01 45° WNW 04:56:31 10° NNE
Cosmos 1844 Rocket 3.1 04:45:49 10° NW 04:51:08 43° WSW 04:56:26 10° S
Abrixas rocket 3.4 04:49:03 15° SSW 04:51:15 31° SE 04:54:15 10° E
USA 234 4.4 04:47:30 10° NE 04:53:25 38° NNW 04:59:20 10° W
Cosmos 1953 2.6 04:51:50 10° S 04:55:50 69° E 04:59:49 10° NNE
SL-8 R/B 4.4 04:51:36 10° W 04:56:19 51° NNW 05:01:03 10° ENE
CZ-4B R/B 4.4 04:52:15 10° NNE 04:57:40 44° E 05:02:59 10° S
Cosmos 1727 Rocket 4.3 04:51:33 10° N 04:57:46 70° E 05:03:53 10° SSE
BREEZE M DEB (TANK) 4.0 04:56:53 12° W 04:59:04 24° SSW 05:03:42 10° SSE
Tiangong 1 3.3 05:00:10 10° S 05:01:15 12° SSE 05:02:21 10° SE
H-2A R/B 4.3 04:50:34 10° W 05:04:41 24° SW 05:09:20 10° S
PSLV R/B 3.9 05:01:23 10° NNE 05:05:19 81° ESE 05:09:21 10° S
Cosmos 1470 3.7 05:01:32 10° S 05:05:20 49° E 05:09:08 10° NNE
Lacrosse 5 3.1 05:01:33 10° S 05:06:09 35° SE 05:10:45 10° ENE
CZ-4B R/B 3.1 05:04:16 10° NNE 05:08:08 73° ESE 05:12:12 10° S
Cosmos 2333 Rocket 2.4 05:03:53 10° SW 05:09:30 63° WNW 05:15:10 10° NNE
BREEZE-M DEB (TANK) 4.3 05:05:59 10° WNW 05:10:42 84° NNE 05:30:27 10° ESE
NOSS 3-2 (C) 4.4 05:03:17 10° NNW 05:10:47 73° NE 05:18:55 10° SE
Cosmos 2366 rocket 4.0 05:05:04 10° S 05:11:14 80° W 05:17:30 10° N
ARIANE 5 R/B 4.2 05:09:29 10° NNW 05:12:57 19° WNW 05:16:26 10° WSW
Meteor 2-15 Rocket 4.5 05:07:54 10° N 05:14:04 79° W 05:20:12 10° S
PSLV R/B 3.8 05:09:45 10° NNE 05:14:09 76° ESE 05:18:32 10° S
Cosmos 1339 Rocket 4.5 05:09:05 10° N 05:15:11 88° W 05:21:16 10° S
RESURS DK-1 4.4 05:13:20 10° SSE 05:16:45 25° ESE 05:20:12 10° NE
Cosmos 1408 Rocket 4.5 05:13:44 10° N 05:18:08 55° E 05:22:28 10° SSE
Cosmos 2278 Rocket 2.2 05:15:22 10° NNW 05:20:57 62° WSW 05:26:32 10° S
CZ-4B DEB 4.4 05:19:33 10° NNE 05:25:09 79° ESE 05:30:43 10° S
ADEOS II 2.2 05:20:25 10° N 05:25:38 65° WNW 05:30:50 10° SSW
Cosmos 724 4.3 05:21:30 10° NW 05:27:28 84° WSW 05:33:15 10° SSE
Cosmos 1733 3.2 05:24:17 10° S 05:28:09 80° W 05:32:03 10° N
Resurs 1-4 Rocket 4.1 05:27:06 10° NW 05:29:08 12° WNW 05:31:11 10° W
Atlas Centaur 2 3.8 05:27:55 10° S 05:29:20 11° SSE 05:30:50 10° SE
ATLAS 2AS CENTAUR R/B 4.1 05:23:58 10° WSW 05:31:09 36° NW 05:38:35 10° NNE
Cosmos 2218 Rocket 4.4 05:27:18 10° SSW 05:33:21 49° WNW 05:39:31 10° N
